{"data":{"norad_id":59909,"intl_designator":"2024-102A","name":"TIANQI-25","alt_names":[],"object_type":"PAYLOAD","status":"ACTIVE","operator":null,"country":"PRC","launch_date":"2024-05-29","launch_site_code":"YSLA","launch_vehicle":null,"mission":null,"orbit_class":"UNKNOWN","rcs_meters":null,"size_class":null,"mass_kg":null,"dimensions":null,"purposes":[],"wikipedia_slug":null,"has_3d_model":false,"image_url":null,"decayed_at":null,"tle_current":{"epoch":"2026-09-22T22:05:08.916576Z","epoch_age_seconds":66307,"freshness":"FRESH","line1":"1 59909U 24102A   26265.92024209  .00000013  00000+0  97052-4 0  9990","line2":"2 59909  44.9765 187.0448 0012393 339.8698  20.1644 13.99194759118593","mean_motion":13.99194759,"eccentricity":0.0012393,"inclination_deg":44.9765,"raan_deg":187.0448,"arg_perigee_deg":339.8698,"mean_anomaly_deg":20.1644,"bstar":9.7052e-5,"rev_number":11859,"period_min":102.9163374675,"perigee_km":887.56932357584,"apogee_km":905.6004492435,"semimajor_km":7274.7218864097,"source":"CELESTRAK","updated_at":"2026-09-23T09:00:19.771426Z"}}}